Salina, KS

10:27 AM CDT on April 23, 2018 (GMT -0500)
Salina Municipal

Weather History for KSLN - January, 2013

Change the Weather History Date:

Wednesday, January 2, 2013

  Actual Average Record
Temperature  
Mean Temperature 19 °F 31 °F  
Max Temperature 32 °F 41 °F 72 °F (1939)
Min Temperature 6 °F 21 °F -20 °F (1919)
Degree Days  
Heating Degree Days 46 34  
Month to date heating degree days 96 68  
Since 1 July heating degree days 1873 2032  
Cooling Degree Days 0 0  
Month to date cooling degree days 0 0  
Year to date cooling degree days 0 0  
Moisture  
Dew Point 15 °F    
Average Humidity 78    
Maximum Humidity 91    
Minimum Humidity 65    
Precipitation  
Precipitation 0.14 in 0.01 in 0.55 in (1947)
Month to date precipitation 0.24 0.03  
Year to date precipitation 0.24 0.03  
Sea Level Pressure  
Sea Level Pressure 30.25 in    
Wind  
Wind Speed 7 mph (WSW)    
Max Wind Speed 14 mph    
Max Gust Speed 16 mph    
Visibility 10 miles    
Events      
T = Trace of Precipitation, MM = Missing Value Source: NWS Daily Summary

Daily Weather History Graph

Daily Weather History Graph

Search for Another Location

Airport or City:

Astronomy

Jan. 02, 2013 Rise Set
Actual Time 7:49 AM CST 5:20 PM CST
Civil Twilight 7:19 AM CST 5:50 PM CST
Nautical Twilight 6:46 AM CST 6:23 PM CST
Astronomical Twilight 6:13 AM CST 6:56 PM CST
Moon 10:51 PM CST (1/2) 10:34 AM CST (1/2)
Length of Visible Light 10h 31m
Length of Day
9h 31m
Waning Gibbous, 75% of the Moon is Illuminated
Jan 2
Waning Gibbous
Jan 4
Last Quarter
Jan 11
New
Jan 18
First Quarter
Jan 26
Full

Hourly Weather History & Observations

Time (CST) Temp. Windchill Dew Point Humidity Pressure Visibility Wind Dir Wind Speed Gust Speed Precip Events Conditions
12:53 AM 10.0 °F - 6.1 °F 84% 30.28 in 7.0 mi Calm Calm - N/A   Clear
1:53 AM 9.0 °F 2.4 °F 5.0 °F 84% 30.27 in 7.0 mi South 3.5 mph - N/A   Clear
2:53 AM 14.0 °F - 10.0 °F 84% 30.25 in 10.0 mi Calm Calm - N/A   Clear
3:53 AM 17.1 °F 10.0 °F 12.0 °F 81% 30.23 in 10.0 mi WSW 4.6 mph - N/A   Clear
4:53 AM 10.0 °F -1.9 °F 7.0 °F 87% 30.22 in 10.0 mi South 8.1 mph - N/A   Clear
5:53 AM 10.9 °F 2.9 °F 7.0 °F 84% 30.21 in 10.0 mi South 4.6 mph - N/A   Clear
6:53 AM 12.0 °F 2.7 °F 7.0 °F 80% 30.22 in 10.0 mi SSW 5.8 mph - N/A   Clear
7:53 AM 9.0 °F -4.2 °F 5.0 °F 84% 30.20 in 10.0 mi SW 9.2 mph - N/A   Clear
8:53 AM 12.9 °F -0.2 °F 7.0 °F 77% 30.24 in 10.0 mi SW 10.4 mph - N/A   Clear
9:53 AM 16.0 °F 5.3 °F 8.1 °F 71% 30.24 in 10.0 mi WSW 8.1 mph - N/A   Clear
10:53 AM 23.0 °F 13.9 °F 12.9 °F 65% 30.25 in 10.0 mi WNW 8.1 mph - 0.01 in   Mostly Cloudy
11:53 AM 24.1 °F 13.7 °F 15.1 °F 69% 30.25 in 10.0 mi WNW 10.4 mph - N/A   Overcast
12:53 PM 27.0 °F 18.7 °F 18.0 °F 69% 30.23 in 10.0 mi WNW 8.1 mph - N/A   Overcast
1:53 PM 28.9 °F 22.8 °F 21.0 °F 72% 30.22 in 10.0 mi WNW 5.8 mph - 0.02 in   Overcast
2:02 PM 30.2 °F 24.3 °F 21.2 °F 69% 30.15 in 10.0 mi NW 5.8 mph - N/A   Overcast
2:53 PM 32.0 °F 24.8 °F 25.0 °F 75% 30.21 in 10.0 mi NW 8.1 mph - 0.03 in   Overcast
3:53 PM 32.0 °F 26.4 °F 25.0 °F 75% 30.22 in 10.0 mi WNW 5.8 mph - 0.06 in   Clear
4:53 PM 28.9 °F 22.8 °F 23.0 °F 78% 30.24 in 10.0 mi West 5.8 mph - 0.02 in   Clear
5:53 PM 23.0 °F 13.9 °F 19.9 °F 88% 30.26 in 10.0 mi SSW 8.1 mph - N/A   Clear
6:53 PM 24.1 °F 17.0 °F 19.9 °F 84% 30.28 in 10.0 mi WSW 5.8 mph - N/A   Partly Cloudy
7:53 PM 32.0 °F 22.1 °F 26.1 °F 79% 30.29 in 10.0 mi West 13.8 mph - N/A   Overcast
8:53 PM 32.0 °F 24.2 °F 26.1 °F 79% 30.30 in 10.0 mi WNW 9.2 mph - N/A   Overcast
9:53 PM 25.0 °F 19.3 °F 21.0 °F 85% 30.31 in 10.0 mi WNW 4.6 mph - N/A   Clear
10:53 PM 19.9 °F 12.1 °F 17.1 °F 89% 30.33 in 10.0 mi West 5.8 mph - N/A   Clear
11:53 PM 18.0 °F 12.7 °F 15.1 °F 88% 30.35 in 8.0 mi SW 3.5 mph - N/A   Clear